Regional Weather Roundup
Issued by NWS

Home | Current Version | Previous Version | Graphics & Text | Print | Product List | Glossary On
Versions: 1 2 3 4 5 6 7 8 9 10 11 12 13 14 15 16 17 18 19 20 21 22 23 24 25 26 27 28 29 30 31 32 33 34 35 36 37 38 39 40 41 42 43 44 45 46 47 48 49 50
664
ASUS45 KBOU 260407
RWRCO

WEATHER ROUNDUP FOR COLORADO
NATIONAL WEATHER SERVICE DENVER/BOULDER CO
900 PM MST SAT FEB 25 2017

NOTE: "FAIR" INDICATES FEW OR NO CLOUDS BELOW 12000 FEET WITH NO
SIGNIFICANT WEATHER AND/OR OBSTRUCTIONS TO VISIBILITY.

COZ001>005-013-030-031-260500-
...NORTHWEST COLORADO...

CITY           SKY/WX    TMP DP  RH WIND       PRES   REMARKS
CRAIG          CLOUDY    17  11  77 SW8       29.88R WCI   7
HAYDEN         FAIR      14   9  79 W6        29.86R WCI   5
MEEKER         CLOUDY    22  14  71 SW6       29.88R WCI  14
MOUNT WERNER   NOT AVBL
STEAMBOAT SPGS CLOUDY    17  10  77 W7        29.84R WCI   7
WALDEN         NOT AVBL
$$

COZ006>008-011-260500-
...WEST CENTRAL VALLEYS...

CITY           SKY/WX    TMP DP  RH WIND       PRES   REMARKS
GRAND JUNCTION CLOUDY    32  12  43 NW3       29.91S
MONTROSE       CLOUDY    29   9  43 SW3       29.92R
EAGLE          CLOUDY    23  12  63 SW18      29.87R WCI   9
RIFLE          FAIR      28  13  53 MISG      29.90R
DELTA          FAIR      35   9  34 W12G17    29.92R WCI  26
NUCLA          CLOUDY    30   5  34 NW5       29.93R WCI  25
$$

COZ017>023-064>068-260500-
...SOUTHWEST COLORADO...

CITY           SKY/WX    TMP DP  RH WIND       PRES   REMARKS
DURANGO        CLOUDY    29   9  43 SW8       29.87R WCI  21
CORTEZ         FAIR      29  15  56 NE5       29.89F WCI  24
PAGOSA SPRINGS CLOUDY    28   3  34 SW12      29.86R WCI  18
TELLURIDE      MOCLDY    19   5  54 CALM      29.85S
WOLF CREEK PAS CLOUDY     5   3  92 SW18      29.79S WCI -15
$$

COZ009-010-012-014-032>034-037-058>063-260500-
...CENTRAL COLORADO...

CITY           SKY/WX    TMP DP  RH WIND       PRES   REMARKS
ASPEN          CLOUDY    17  12  80 N8        29.81R WCI   7
BUENA VISTA    CLOUDY    20   5  51 NW5       29.78R WCI  14
COPPER MTN     LGT SNOW   5  -4  66 MISG      29.63S VSB 3/4
BERTHOUD PASS  HVY SNOW  -4 -15  59 MISG      29.51R VSB 1/4
COTTONWOOD PAS CLOUDY    18   3  53 W10G23    29.71S HAZE    WCI   6
GUNNISON       FLURRIES  17  12  80 CALM      29.84S
KREMMLING      CLOUDY    21  14  73 NW3       29.82R
LEADVILLE      LGT SNOW   8   1  73 NW9G17    29.72R WCI  -5
MONARCH PASS   SNOW       3  -2  78 W33G43    29.74R VSB 1/2 WCI -23
SALIDA         CLOUDY    25   4  40 W12       29.87S WCI  14
SUNLIGHT       NOT AVBL
WILKERSON PASS CLOUDY     5  -2  72 SW9G17    29.68S WCI  -9
$$

COZ069>075-260500-
...SAN LUIS VALLEY/SANGRE DE CRISTO MOUNTAINS...

CITY           SKY/WX    TMP DP  RH WIND       PRES   REMARKS
ALAMOSA        MOCLDY    27  10  49 SW14      29.81R WCI  16
LA VETA PASS   CLOUDY    16   3  57 S21G41    29.73S WCI  -2
SAGUACHE       FAIR      21   9  58 NW13      29.83R WCI   9
$$

COZ035-036-038>040-260500-
...NORTHERN COLORADO FRONT RANGE...

CITY           SKY/WX    TMP DP  RH WIND       PRES   REMARKS
DENVER INTL AP FAIR      25   4  40 W3        29.78R
DMNS CITY PARK   N/A     29   3  32 W6G13     29.79R WCI  23
AURORA         PTCLDY    24   3  40 SW8       29.78R WCI  15
FRONT RANGE AP PTCLDY    19   9  63 S7        29.78F WCI  10
ERIE MUNI ARPT MOCLDY    27   6  39 CALM      29.79R
BOULDER MUN AP CLOUDY    30  10  43 CALM      29.78R
CENTENNIAL     FAIR      24   4  42 S10       29.77S WCI  14
BROOMFIELD     PTCLDY    25   7  46 W8        29.78R WCI  16
FORT COLLINS   FAIR      21  11  65 E7        29.79S WCI  12
LONGMONT       CLOUDY    31  11  43 S5        29.81S WCI  26
$$

COZ041-046-047-076>085-087-088-260500-
...PIKES PEAK/PALMER DIVIDE AND SOUTHERN FOOTHILLS...

CITY           SKY/WX    TMP DP  RH WIND       PRES   REMARKS
COLO. SPRINGS  FAIR      28  -7  21 W5        29.81R WCI  23
A. F. ACADEMY  FAIR      19  -2  39 N7        29.79R WCI   9
SCHRIEVER AFB  FAIR      24  -6  27 NW6       29.81R WCI  17
ELLICOTT       NOT AVBL
FALCON         FAIR      21  -4  33 W8        29.79S WCI  11
FORT CARSON    FAIR      29  -3  25 W10       29.80R WCI  19
LIMON          FAIR      12   6  77 S8        29.80S WCI   0
MONUMENT HILL  FAIR      14   0  52 SW6       29.78S WCI   5
TRINIDAD       FAIR      30   2  30 N3        29.81S
$$

COZ042>045-048>051-090-091-260500-
...NORTHEAST COLORADO...

CITY           SKY/WX    TMP DP  RH WIND       PRES   REMARKS
GREELEY ARPT   FAIR      23  13  65 CALM      29.81S
AKRON          MOCLDY    24  16  71 SE8       29.82S WCI  15
BURLINGTON     FAIR      23   5  46 E6        29.84R WCI  16
WRAY           NOT AVBL
STERLING       MOCLDY    23  19  86 SW7       29.83R WCI  15
HOLYOKE        FAIR      32  21  64 SW13G18   29.84S WCI  22
FORT MORGAN    FAIR      22  16  77 NE5       29.83S WCI  16
$$

COZ086-089-092>099-260500-
...SOUTHEAST COLORADO...

CITY           SKY/WX    TMP DP  RH WIND       PRES   REMARKS
PUEBLO         FAIR      36  -2  20 NW16      29.81R
LA JUNTA       FAIR      33   1  25 N8        29.82R WCI  26
LAMAR          FAIR      28   2  32 W3        29.81R
SPRINGFIELD      N/A     28   2  32 NW6       29.79S WCI  22
$$




USA.gov is the U.S. government's official web portal to all federal, state and local government web resources and services.